TAM8087 KLAX-SBGR

Flight info

Callsign TAM8087
Flight time N/A
Altitude 35000
Route PNDAH2 TCATE DCT PPE UL655 CDR/N0490F370 UL655 ASEPI/N0486F390 UL655 DIKAL UZ52 ABATE/N0480F410 UZ52 PUMRO UZ42 ZARES
Aircraft B789/H-SDE1E2E3FGHIJ2J3J4J5M1RWXY/LB1D1

Departure

Time 2026-04-23 05:20
Airport Los Angeles International Airport (KLAX)

Arrival

Time N/A
Airport São Paulo/Guarulhos–Governor André Franco Montoro International Airport (SBGR)
Time Latitude Longitude Altitude Speed Heading
2026-04-23 04:38 33.94096 -118.41098 140 ft 0 kts 83°
2026-04-23 05:07 33.94096 -118.41100 139 ft 2 kts 83°
2026-04-23 05:07 33.94093 -118.41130 139 ft 4 kts 83°
2026-04-23 05:07 33.94090 -118.41160 139 ft 3 kts 83°
2026-04-23 05:07 33.94091 -118.41187 139 ft 4 kts 118°
2026-04-23 05:08 33.94107 -118.41207 139 ft 4 kts 151°
2026-04-23 05:08 33.94131 -118.41218 139 ft 4 kts 167°
2026-04-23 05:08 33.94149 -118.41222 139 ft 1 kts 173°
2026-04-23 05:08 33.94152 -118.41222 139 ft 0 kts 173°
2026-04-23 05:10 33.94151 -118.41222 139 ft 0 kts 173°
2026-04-23 05:11 33.94148 -118.41222 139 ft 1 kts 173°
2026-04-23 05:11 33.94131 -118.41219 139 ft 3 kts 173°
2026-04-23 05:11 33.94100 -118.41214 139 ft 5 kts 173°
2026-04-23 05:12 33.94057 -118.41208 139 ft 7 kts 173°
2026-04-23 05:12 33.94003 -118.41200 139 ft 9 kts 173°
2026-04-23 05:12 33.93937 -118.41190 139 ft 10 kts 173°
2026-04-23 05:12 33.93889 -118.41182 139 ft 5 kts 172°
2026-04-23 05:13 33.93845 -118.41174 139 ft 7 kts 171°
2026-04-23 05:13 33.93789 -118.41162 139 ft 9 kts 166°
2026-04-23 05:13 33.93764 -118.41119 139 ft 7 kts 86°
2026-04-23 05:14 33.93777 -118.40978 139 ft 10 kts 82°
2026-04-23 05:14 33.93788 -118.40885 139 ft 12 kts 83°
2026-04-23 05:14 33.93798 -118.40774 139 ft 14 kts 83°
2026-04-23 05:14 33.93811 -118.40647 139 ft 16 kts 82°
2026-04-23 05:15 33.93826 -118.40505 139 ft 18 kts 83°
2026-04-23 05:15 33.93842 -118.40349 139 ft 20 kts 83°
2026-04-23 05:15 33.93860 -118.40177 139 ft 21 kts 83°
2026-04-23 05:15 33.93879 -118.39993 139 ft 23 kts 83°
2026-04-23 05:16 33.93899 -118.39797 139 ft 24 kts 84°
2026-04-23 05:16 33.93919 -118.39589 139 ft 26 kts 83°
2026-04-23 05:16 33.93940 -118.39391 139 ft 21 kts 83°
2026-04-23 05:16 33.93959 -118.39210 139 ft 23 kts 83°
2026-04-23 05:17 33.93979 -118.39017 139 ft 24 kts 83°
2026-04-23 05:17 33.93997 -118.38838 139 ft 21 kts 83°
2026-04-23 05:17 33.94014 -118.38660 139 ft 22 kts 83°
2026-04-23 05:17 33.94028 -118.38533 139 ft 13 kts 82°
2026-04-23 05:18 33.94041 -118.38413 139 ft 15 kts 82°
2026-04-23 05:18 33.94026 -118.38342 139 ft 6 kts 172°
2026-04-23 05:18 33.93988 -118.38335 139 ft 6 kts 172°
2026-04-23 05:18 33.93958 -118.38351 139 ft 3 kts 240°
2026-04-23 05:19 33.93948 -118.38382 139 ft 6 kts 256°
2026-04-23 05:19 33.93925 -118.38584 140 ft 58 kts 263°
2026-04-23 05:19 33.93842 -118.39404 140 ft 137 kts 263°
2026-04-23 05:19 33.93699 -118.40787 170 ft 190 kts 263°
2026-04-23 05:20 33.93527 -118.42408 814 ft 192 kts 263°
2026-04-23 05:20 33.93377 -118.43960 1841 ft 187 kts 264°
2026-04-23 05:20 33.93225 -118.45529 2505 ft 193 kts 262°
2026-04-23 05:20 33.92609 -118.46980 2766 ft 198 kts 232°
2026-04-23 05:21 33.91687 -118.48266 2978 ft 212 kts 232°
2026-04-23 05:21 33.90681 -118.49703 2974 ft 237 kts 231°
2026-04-23 05:21 33.89563 -118.51267 3267 ft 254 kts 231°
2026-04-23 05:21 33.88390 -118.52918 3912 ft 263 kts 231°
2026-04-23 05:22 33.87185 -118.54625 4457 ft 273 kts 231°
2026-04-23 05:22 33.85804 -118.56206 4623 ft 278 kts 214°
2026-04-23 05:22 33.83950 -118.56865 4971 ft 290 kts 184°
2026-04-23 05:22 33.81989 -118.56359 5805 ft 289 kts 159°
2026-04-23 05:23 33.80138 -118.55474 6729 ft 286 kts 160°
2026-04-23 05:23 33.78631 -118.54845 7325 ft 289 kts 163°
2026-04-23 05:23 33.76666 -118.54144 8047 ft 292 kts 166°
2026-04-23 05:23 33.74684 -118.53519 8729 ft 297 kts 167°
2026-04-23 05:24 33.72662 -118.52929 9392 ft 301 kts 168°
2026-04-23 05:24 33.70606 -118.52303 10033 ft 309 kts 163°
2026-04-23 05:24 33.68731 -118.50916 10377 ft 329 kts 138°
2026-04-23 05:24 33.67415 -118.48593 10663 ft 348 kts 114°
2026-04-23 05:25 33.66520 -118.45818 11038 ft 364 kts 110°
2026-04-23 05:25 33.65554 -118.42923 11358 ft 382 kts 113°
2026-04-23 05:25 33.64442 -118.39958 11805 ft 396 kts 116°
2026-04-23 05:25 33.63223 -118.36947 12355 ft 406 kts 117°
2026-04-23 05:26 33.61937 -118.33897 13008 ft 412 kts 118°
2026-04-23 05:26 33.60614 -118.30819 13674 ft 418 kts 118°
2026-04-23 05:26 33.59270 -118.27717 14335 ft 423 kts 119°
2026-04-23 05:26 33.57897 -118.24562 15003 ft 428 kts 119°
2026-04-23 05:27 33.56510 -118.21377 15653 ft 433 kts 119°
2026-04-23 05:27 33.55105 -118.18152 16286 ft 437 kts 120°
2026-04-23 05:27 33.53694 -118.14896 16881 ft 443 kts 120°
2026-04-23 05:27 33.52271 -118.11599 17467 ft 448 kts 120°
2026-04-23 05:28 33.50835 -118.08269 18083 ft 452 kts 120°
2026-04-23 05:28 33.49668 -118.05560 18564 ft 456 kts 120°
2026-04-23 05:28 33.48331 -118.02619 19060 ft 458 kts 125°
2026-04-23 05:28 33.46366 -117.99555 19619 ft 458 kts 135°
2026-04-23 05:29 33.44185 -117.96751 20197 ft 461 kts 139°
2026-04-23 05:29 33.41929 -117.94084 20726 ft 464 kts 141°
2026-04-23 05:29 33.39531 -117.91407 21226 ft 468 kts 142°
2026-04-23 05:29 33.37134 -117.88813 21759 ft 472 kts 143°
2026-04-23 05:30 33.34681 -117.86193 22305 ft 475 kts 143°
2026-04-23 05:30 33.32199 -117.83557 22818 ft 479 kts 143°
2026-04-23 05:30 33.29697 -117.80905 23301 ft 483 kts 143°
2026-04-23 05:30 33.27174 -117.78230 23799 ft 487 kts 143°
2026-04-23 05:31 33.24634 -117.75535 24291 ft 490 kts 144°
2026-04-23 05:31 33.22075 -117.72822 24793 ft 493 kts 144°
2026-04-23 05:31 33.19535 -117.70061 25298 ft 498 kts 140°
2026-04-23 05:31 33.17330 -117.66810 25768 ft 510 kts 128°
2026-04-23 05:32 33.15614 -117.63069 26283 ft 516 kts 118°
2026-04-23 05:32 33.14193 -117.59124 26721 ft 521 kts 115°
2026-04-23 05:32 33.12908 -117.55061 27075 ft 527 kts 113°
2026-04-23 05:32 33.11678 -117.50913 27452 ft 531 kts 112°
2026-04-23 05:33 33.10464 -117.46740 27856 ft 534 kts 112°
2026-04-23 05:33 33.09239 -117.42545 28270 ft 537 kts 112°
2026-04-23 05:33 33.08001 -117.38339 28676 ft 539 kts 112°
2026-04-23 05:33 33.06745 -117.34105 29038 ft 542 kts 113°
2026-04-23 05:34 33.05476 -117.29851 29367 ft 546 kts 113°
2026-04-23 05:34 33.04197 -117.25571 29657 ft 550 kts 113°
2026-04-23 05:34 33.02963 -117.21450 29990 ft 553 kts 113°
2026-04-23 05:34 33.01668 -117.17132 30324 ft 556 kts 113°
2026-04-23 05:35 33.00361 -117.12779 30681 ft 558 kts 113°
2026-04-23 05:35 32.99068 -117.08473 31074 ft 559 kts 113°
2026-04-23 05:35 32.97758 -117.04119 31480 ft 559 kts 113°
2026-04-23 05:35 32.96444 -116.99758 31849 ft 560 kts 113°
2026-04-23 05:36 32.95128 -116.95392 32237 ft 561 kts 113°
2026-04-23 05:36 32.93803 -116.91009 32612 ft 562 kts 113°
2026-04-23 05:36 32.92480 -116.86635 32986 ft 562 kts 113°
2026-04-23 05:36 32.91154 -116.82260 33333 ft 563 kts 113°
2026-04-23 05:37 32.89824 -116.77877 33696 ft 563 kts 113°
2026-04-23 05:37 32.88491 -116.73494 34031 ft 563 kts 113°
2026-04-23 05:37 32.87158 -116.69112 34387 ft 563 kts 113°
2026-04-23 05:37 32.85823 -116.64729 34753 ft 563 kts 114°
2026-04-23 05:38 32.84488 -116.60355 35119 ft 562 kts 114°
2026-04-23 05:38 32.83138 -116.55988 35459 ft 561 kts 115°
2026-04-23 05:38 32.81660 -116.51716 35792 ft 559 kts 118°
2026-04-23 05:38 32.80090 -116.47488 36132 ft 557 kts 119°
2026-04-23 05:39 32.78473 -116.43312 36454 ft 555 kts 120°
2026-04-23 05:39 32.76795 -116.39184 36755 ft 554 kts 122°
2026-04-23 05:39 32.75091 -116.35149 36979 ft 554 kts 123°
2026-04-23 05:40 32.71538 -116.26978 37078 ft 561 kts 123°
2026-04-23 05:40 32.67916 -116.18714 37060 ft 564 kts 123°
2026-04-23 05:41 32.64320 -116.10490 37028 ft 560 kts 123°
2026-04-23 05:41 32.60722 -116.02283 37015 ft 561 kts 123°
2026-04-23 05:42 32.57114 -115.94075 37021 ft 562 kts 123°
2026-04-23 05:42 32.53491 -115.85849 37012 ft 562 kts 123°
2026-04-23 05:43 32.49873 -115.77650 36993 ft 562 kts 123°
2026-04-23 05:43 32.46245 -115.69447 36986 ft 562 kts 123°
2026-04-23 05:44 32.42615 -115.61260 36996 ft 562 kts 123°
2026-04-23 05:44 32.38979 -115.53080 36984 ft 562 kts 123°
2026-04-23 05:45 32.35337 -115.44903 36992 ft 562 kts 123°
2026-04-23 05:45 32.32308 -115.38118 36993 ft 562 kts 123°
2026-04-23 05:46 32.28058 -115.28618 36984 ft 563 kts 123°
2026-04-23 05:46 32.24397 -115.20453 36996 ft 562 kts 123°
2026-04-23 05:47 32.21350 -115.13670 36982 ft 562 kts 123°
2026-04-23 05:47 32.17678 -115.05513 36987 ft 561 kts 123°
2026-04-23 05:48 32.14018 -114.97394 36984 ft 561 kts 123°
2026-04-23 05:48 32.10337 -114.89255 36977 ft 562 kts 123°
2026-04-23 05:49 32.06652 -114.81124 36966 ft 562 kts 123°
2026-04-23 05:49 32.02966 -114.73009 36971 ft 561 kts 123°
2026-04-23 05:50 31.99276 -114.64905 36975 ft 562 kts 123°
2026-04-23 05:50 31.95574 -114.56801 36962 ft 561 kts 123°
2026-04-23 05:51 31.91877 -114.48721 36959 ft 561 kts 123°
2026-04-23 05:51 31.88177 -114.40648 36966 ft 561 kts 123°
2026-04-23 05:52 31.84470 -114.32575 36964 ft 561 kts 123°
2026-04-23 05:52 31.80779 -114.24553 36966 ft 561 kts 123°
2026-04-23 05:53 31.77067 -114.16506 36972 ft 561 kts 123°
2026-04-23 05:53 31.73338 -114.08440 36961 ft 561 kts 123°
2026-04-23 05:54 31.69612 -114.00397 36973 ft 560 kts 123°
2026-04-23 05:54 31.65880 -113.92361 36973 ft 561 kts 123°
2026-04-23 05:55 31.62150 -113.84344 36965 ft 559 kts 123°
2026-04-23 05:55 31.58416 -113.76337 36980 ft 560 kts 124°
2026-04-23 05:56 31.54661 -113.68303 36976 ft 562 kts 123°
2026-04-23 05:56 31.50911 -113.60286 36972 ft 560 kts 124°
2026-04-23 05:57 31.47188 -113.52349 36986 ft 560 kts 124°
2026-04-23 05:57 31.43427 -113.44353 36981 ft 560 kts 124°
2026-04-23 05:58 31.39667 -113.36379 36963 ft 559 kts 124°
2026-04-23 05:58 31.35755 -113.28517 36959 ft 558 kts 126°
2026-04-23 05:59 31.31727 -113.20747 36972 ft 559 kts 127°
2026-04-23 05:59 31.27632 -113.13015 36961 ft 558 kts 127°
2026-04-23 06:00 31.23526 -113.05318 36965 ft 558 kts 127°
2026-04-23 06:00 31.19420 -112.97633 36970 ft 557 kts 127°
2026-04-23 06:01 31.15310 -112.89951 36959 ft 557 kts 127°
2026-04-23 06:01 31.11201 -112.82285 36971 ft 557 kts 127°
2026-04-23 06:02 31.07082 -112.74614 36966 ft 558 kts 127°
2026-04-23 06:02 31.02960 -112.66953 36965 ft 557 kts 127°
2026-04-23 06:03 30.98868 -112.59354 37009 ft 557 kts 127°
2026-04-23 06:03 30.94739 -112.51708 37046 ft 557 kts 127°
2026-04-23 06:04 30.90606 -112.44070 37066 ft 558 kts 128°
2026-04-23 06:04 30.86459 -112.36424 37080 ft 558 kts 128°
2026-04-23 06:05 30.82309 -112.28786 37076 ft 558 kts 128°
2026-04-23 06:05 30.78150 -112.21148 37060 ft 559 kts 128°
2026-04-23 06:06 30.73988 -112.13516 37035 ft 558 kts 127°
2026-04-23 06:06 30.69833 -112.05912 37057 ft 558 kts 128°
2026-04-23 06:07 30.65655 -111.98283 37074 ft 558 kts 128°
2026-04-23 06:07 30.61478 -111.90671 37071 ft 559 kts 127°
2026-04-23 06:08 30.57301 -111.83073 37071 ft 559 kts 128°
2026-04-23 06:08 30.53139 -111.75522 37082 ft 558 kts 128°
2026-04-23 06:09 30.48960 -111.67951 37069 ft 558 kts 128°
2026-04-23 06:09 30.44773 -111.60379 37081 ft 558 kts 128°
2026-04-23 06:10 30.40580 -111.52805 37076 ft 558 kts 128°
2026-04-23 06:10 30.36386 -111.45241 37070 ft 558 kts 128°
2026-04-23 06:11 30.32187 -111.37688 37081 ft 558 kts 128°
2026-04-23 06:11 30.27988 -111.30151 37067 ft 557 kts 128°
2026-04-23 06:12 30.23788 -111.22622 37050 ft 556 kts 128°
2026-04-23 06:12 30.17490 -111.11366 37048 ft 556 kts 128°
2026-04-23 06:13 30.13286 -111.03866 37034 ft 555 kts 128°
2026-04-23 06:13 30.09099 -110.96376 37024 ft 555 kts 128°
2026-04-23 06:14 30.04914 -110.88887 37033 ft 555 kts 128°
2026-04-23 06:14 30.00729 -110.81407 37046 ft 554 kts 128°
2026-04-23 06:15 29.96539 -110.73929 37060 ft 554 kts 128°
2026-04-23 06:15 29.92381 -110.66518 37044 ft 554 kts 128°
2026-04-23 06:16 29.88193 -110.59067 37046 ft 554 kts 128°
2026-04-23 06:16 29.83999 -110.51620 37050 ft 554 kts 128°
2026-04-23 06:17 29.79812 -110.44199 37034 ft 552 kts 128°
2026-04-23 06:17 29.75625 -110.36796 37046 ft 552 kts 128°
2026-04-23 06:18 29.71431 -110.29390 37037 ft 552 kts 128°
2026-04-23 06:18 29.67231 -110.21989 37025 ft 552 kts 128°
2026-04-23 06:19 29.63031 -110.14599 37036 ft 552 kts 128°
2026-04-23 06:19 29.58827 -110.07217 37030 ft 552 kts 128°
2026-04-23 06:20 29.54619 -109.99841 37026 ft 552 kts 128°
2026-04-23 06:20 29.50401 -109.92457 37037 ft 554 kts 127°
2026-04-23 06:21 29.46169 -109.85060 37028 ft 554 kts 127°
2026-04-23 06:21 29.41937 -109.77677 37035 ft 553 kts 127°
2026-04-23 06:22 29.37709 -109.70318 37049 ft 553 kts 127°
2026-04-23 06:22 29.33466 -109.62956 37051 ft 553 kts 127°
2026-04-23 06:23 29.29222 -109.55600 37041 ft 553 kts 127°
2026-04-23 06:23 29.24979 -109.48257 37030 ft 553 kts 127°
2026-04-23 06:24 29.20758 -109.40958 37037 ft 552 kts 127°
2026-04-23 06:24 29.16511 -109.33630 37041 ft 553 kts 127°
2026-04-23 06:25 29.12255 -109.26306 37031 ft 553 kts 127°
2026-04-23 06:25 29.07999 -109.18991 37036 ft 552 kts 127°
2026-04-23 06:26 29.03743 -109.11687 37013 ft 552 kts 127°
2026-04-23 06:26 28.99477 -109.04381 37002 ft 552 kts 127°
2026-04-23 06:27 28.95209 -108.97087 37007 ft 553 kts 127°
2026-04-23 06:27 28.90930 -108.89784 37009 ft 553 kts 127°
2026-04-23 06:28 28.86645 -108.82483 36999 ft 553 kts 127°
2026-04-23 06:28 28.82362 -108.75194 37013 ft 553 kts 127°
2026-04-23 06:29 28.78084 -108.67921 37004 ft 552 kts 127°
2026-04-23 06:29 28.73793 -108.60646 37001 ft 552 kts 127°
2026-04-23 06:30 28.69530 -108.53434 37011 ft 553 kts 127°
2026-04-23 06:30 28.65222 -108.46170 37000 ft 553 kts 127°
2026-04-23 06:31 28.60905 -108.38913 37006 ft 553 kts 127°
2026-04-23 06:31 28.56577 -108.31663 37013 ft 554 kts 127°
2026-04-23 06:32 28.52252 -108.24422 37002 ft 553 kts 127°
2026-04-23 06:32 28.48633 -108.18370 37011 ft 552 kts 127°
2026-04-23 06:33 28.44304 -108.11141 37017 ft 554 kts 127°
2026-04-23 06:33 28.39990 -108.03947 37007 ft 554 kts 127°
2026-04-23 06:34 28.35648 -107.96721 37019 ft 554 kts 127°
2026-04-23 06:34 28.31291 -107.89483 37018 ft 555 kts 127°
2026-04-23 06:35 28.26931 -107.82257 37012 ft 554 kts 127°
2026-04-23 06:35 28.22568 -107.75035 37027 ft 555 kts 127°
2026-04-23 06:36 28.18202 -107.67821 37019 ft 555 kts 127°
2026-04-23 06:36 28.13837 -107.60623 37022 ft 554 kts 127°
2026-04-23 06:37 28.09465 -107.53423 37029 ft 554 kts 127°
2026-04-23 06:37 28.05085 -107.46227 37022 ft 555 kts 127°
2026-04-23 06:38 28.00730 -107.39084 37030 ft 555 kts 127°
2026-04-23 06:38 27.96345 -107.31899 37034 ft 554 kts 127°
2026-04-23 06:39 27.91969 -107.24732 37021 ft 554 kts 127°
2026-04-23 06:39 27.87586 -107.17571 37035 ft 554 kts 127°
2026-04-23 06:40 27.83191 -107.10412 37029 ft 554 kts 127°
2026-04-23 06:40 27.78792 -107.03261 37031 ft 554 kts 127°
2026-04-23 06:41 27.74392 -106.96116 37040 ft 554 kts 127°
2026-04-23 06:41 27.69985 -106.88968 37029 ft 554 kts 127°
2026-04-23 06:42 27.65578 -106.81828 37042 ft 555 kts 127°
2026-04-23 06:42 27.61157 -106.74674 37048 ft 556 kts 127°
2026-04-23 06:43 27.56726 -106.67522 37036 ft 556 kts 127°
2026-04-23 06:43 27.52319 -106.60428 37047 ft 556 kts 127°
2026-04-23 06:44 27.47885 -106.53300 37041 ft 556 kts 127°
2026-04-23 06:44 27.43445 -106.46165 37046 ft 556 kts 127°
2026-04-23 06:45 27.38999 -106.39036 37041 ft 556 kts 127°
2026-04-23 06:45 27.34545 -106.31907 37032 ft 556 kts 127°
2026-04-23 06:46 27.30099 -106.24800 37044 ft 556 kts 127°
2026-04-23 06:46 27.25638 -106.17682 37035 ft 556 kts 127°
2026-04-23 06:47 27.21186 -106.10588 37034 ft 556 kts 127°
2026-04-23 06:47 27.16716 -106.03478 37043 ft 556 kts 127°
2026-04-23 06:48 27.12256 -105.96394 37026 ft 555 kts 127°
2026-04-23 06:48 27.07785 -105.89301 37027 ft 557 kts 126°
2026-04-23 06:49 27.03305 -105.82206 37031 ft 557 kts 126°
2026-04-23 06:49 26.98823 -105.75121 37018 ft 556 kts 126°
2026-04-23 06:50 26.94373 -105.68098 37028 ft 556 kts 126°
2026-04-23 06:50 26.89882 -105.61021 37027 ft 556 kts 126°
2026-04-23 06:51 26.85393 -105.53960 37017 ft 556 kts 126°
2026-04-23 06:51 26.80899 -105.46901 37029 ft 555 kts 126°
2026-04-23 06:52 26.76410 -105.39862 37018 ft 556 kts 126°
2026-04-23 06:52 26.71918 -105.32828 37008 ft 555 kts 126°
2026-04-23 06:53 26.67445 -105.25839 37020 ft 556 kts 126°
2026-04-23 06:53 26.62947 -105.18820 37012 ft 556 kts 126°
2026-04-23 06:54 26.58439 -105.11796 37008 ft 556 kts 126°
2026-04-23 06:54 26.53929 -105.04779 37020 ft 556 kts 126°
2026-04-23 06:55 26.49418 -104.97770 37008 ft 556 kts 126°
2026-04-23 06:55 26.44903 -104.90762 37013 ft 556 kts 126°
2026-04-23 06:56 26.40381 -104.83750 37017 ft 556 kts 126°
2026-04-23 06:56 26.35856 -104.76754 37006 ft 555 kts 126°
2026-04-23 06:57 26.31338 -104.69784 37017 ft 555 kts 126°
2026-04-23 06:57 26.26842 -104.62854 37015 ft 555 kts 126°
2026-04-23 06:58 26.22314 -104.55885 37008 ft 555 kts 126°
2026-04-23 06:58 26.17785 -104.48921 37021 ft 555 kts 126°
2026-04-23 06:59 26.13246 -104.41952 37046 ft 555 kts 126°
2026-04-23 06:59 26.08708 -104.34996 37057 ft 555 kts 126°
2026-04-23 07:00 26.04198 -104.28098 37043 ft 555 kts 126°
2026-04-23 07:00 25.99652 -104.21156 37045 ft 555 kts 126°
2026-04-23 07:01 25.95104 -104.14219 37048 ft 555 kts 126°
2026-04-23 07:01 25.90551 -104.07286 37033 ft 555 kts 126°
2026-04-23 07:02 25.86007 -104.00367 37041 ft 555 kts 126°
2026-04-23 07:02 25.81440 -103.93428 37036 ft 555 kts 126°
2026-04-23 07:03 25.76879 -103.86510 37025 ft 555 kts 126°
2026-04-23 07:03 25.72316 -103.79602 37035 ft 555 kts 126°
2026-04-23 07:04 25.67747 -103.72693 37025 ft 555 kts 126°
2026-04-23 07:04 25.63181 -103.65800 37019 ft 555 kts 126°
2026-04-23 07:05 25.58603 -103.58902 37029 ft 556 kts 126°
2026-04-23 07:05 25.54020 -103.52006 37016 ft 556 kts 126°
2026-04-23 07:06 25.49467 -103.45163 37021 ft 556 kts 126°
2026-04-23 07:06 25.44878 -103.38275 37026 ft 556 kts 126°
2026-04-23 07:07 25.40285 -103.31392 37016 ft 556 kts 126°
2026-04-23 07:07 25.35691 -103.24519 37032 ft 555 kts 126°
2026-04-23 07:08 25.31101 -103.17660 37035 ft 555 kts 126°
2026-04-23 07:08 25.26504 -103.10799 37039 ft 555 kts 126°
2026-04-23 07:09 25.21904 -103.03946 37053 ft 555 kts 126°
2026-04-23 07:09 25.17296 -102.97084 37062 ft 556 kts 126°
2026-04-23 07:10 25.12686 -102.90231 37069 ft 556 kts 126°
2026-04-23 07:10 25.08094 -102.83428 37081 ft 556 kts 126°
2026-04-23 07:11 25.03473 -102.76585 37094 ft 556 kts 126°
2026-04-23 07:12 24.96548 -102.66343 37105 ft 555 kts 126°
2026-04-23 07:12 24.91917 -102.59507 37097 ft 555 kts 126°
2026-04-23 07:13 24.87299 -102.52696 37113 ft 555 kts 126°
2026-04-23 07:13 24.82685 -102.45898 37126 ft 554 kts 126°
2026-04-23 07:14 24.78064 -102.39110 37137 ft 554 kts 127°
2026-04-23 07:14 24.73448 -102.32336 37141 ft 553 kts 127°
2026-04-23 07:15 24.68856 -102.25605 37154 ft 553 kts 127°
2026-04-23 07:15 24.64234 -102.18838 37160 ft 553 kts 127°
2026-04-23 07:16 24.59614 -102.12084 37160 ft 552 kts 127°
2026-04-23 07:16 24.54996 -102.05342 37174 ft 553 kts 127°
2026-04-23 07:17 24.50374 -101.98605 37173 ft 551 kts 127°
2026-04-23 07:17 24.45753 -101.91879 37177 ft 551 kts 127°
2026-04-23 07:18 24.41121 -101.85145 37189 ft 552 kts 127°
2026-04-23 07:18 24.36501 -101.78441 37179 ft 550 kts 127°
2026-04-23 07:19 24.32666 -101.72880 37188 ft 550 kts 127°
2026-04-23 07:19 24.27289 -101.65094 37199 ft 551 kts 127°
2026-04-23 07:20 24.22662 -101.58404 37190 ft 551 kts 127°
2026-04-23 07:20 24.18009 -101.51743 37205 ft 550 kts 129°
2026-04-23 07:21 24.13963 -101.46357 37205 ft 551 kts 130°
2026-04-23 07:21 24.08973 -101.39995 37199 ft 550 kts 131°
2026-04-23 07:22 24.03924 -101.33685 37213 ft 550 kts 131°
2026-04-23 07:22 23.98887 -101.27394 37211 ft 549 kts 131°
2026-04-23 07:23 23.93874 -101.21139 37208 ft 544 kts 131°
2026-04-23 07:23 23.88886 -101.14929 37222 ft 545 kts 131°
2026-04-23 07:24 23.83885 -101.08711 37218 ft 544 kts 131°
2026-04-23 07:24 23.78901 -101.02519 37219 ft 542 kts 131°
2026-04-23 07:25 23.73907 -100.96328 37230 ft 543 kts 131°
2026-04-23 07:25 23.68910 -100.90141 37197 ft 542 kts 132°
2026-04-23 07:26 23.63927 -100.83982 37165 ft 541 kts 132°
2026-04-23 07:26 23.58940 -100.77823 37150 ft 542 kts 132°
2026-04-23 07:27 23.53956 -100.71665 37145 ft 541 kts 131°
2026-04-23 07:27 23.48976 -100.65521 37157 ft 541 kts 132°
2026-04-23 07:28 23.43984 -100.59374 37146 ft 541 kts 132°
2026-04-23 07:28 23.39002 -100.53248 37143 ft 540 kts 132°
2026-04-23 07:29 23.34044 -100.47161 37154 ft 540 kts 132°
2026-04-23 07:29 23.29059 -100.41055 37140 ft 539 kts 132°
2026-04-23 07:30 23.24077 -100.34952 37143 ft 539 kts 132°
2026-04-23 07:30 23.19095 -100.28858 37120 ft 539 kts 132°
2026-04-23 07:31 23.14113 -100.22767 37103 ft 538 kts 132°
2026-04-23 07:31 23.09136 -100.16693 37097 ft 538 kts 132°
2026-04-23 07:32 23.04150 -100.10615 37106 ft 538 kts 132°
2026-04-23 07:32 22.99180 -100.04564 37090 ft 537 kts 132°
2026-04-23 07:33 22.94238 -99.98558 37092 ft 536 kts 133°
2026-04-23 07:33 22.89277 -99.92530 37091 ft 534 kts 133°
2026-04-23 07:34 22.84330 -99.86529 37080 ft 533 kts 133°
2026-04-23 07:34 22.79382 -99.80530 37098 ft 534 kts 133°
2026-04-23 07:35 22.74432 -99.74539 37097 ft 534 kts 133°
2026-04-23 07:35 22.69485 -99.68558 37083 ft 532 kts 133°
2026-04-23 07:36 22.64540 -99.62587 37091 ft 532 kts 133°
2026-04-23 07:36 22.59583 -99.56611 37083 ft 532 kts 133°
2026-04-23 07:37 22.54630 -99.50642 37073 ft 532 kts 133°
2026-04-23 07:37 22.49679 -99.44687 37081 ft 532 kts 133°
2026-04-23 07:38 22.44730 -99.38741 37070 ft 532 kts 133°
2026-04-23 07:38 22.39811 -99.32837 37063 ft 532 kts 133°
2026-04-23 07:39 22.34848 -99.26888 37073 ft 533 kts 133°
2026-04-23 07:39 22.29881 -99.20937 37056 ft 533 kts 133°
2026-04-23 07:40 22.24922 -99.15005 37057 ft 532 kts 134°
2026-04-23 07:40 22.19952 -99.09071 37082 ft 534 kts 134°
2026-04-23 07:41 22.14972 -99.03132 37084 ft 533 kts 134°
2026-04-23 07:41 22.10000 -98.97201 37085 ft 532 kts 134°
2026-04-23 07:42 22.05021 -98.91272 37079 ft 534 kts 134°
2026-04-23 07:42 22.00034 -98.85343 37040 ft 534 kts 134°
2026-04-23 07:43 21.95050 -98.79423 37019 ft 532 kts 134°
2026-04-23 07:43 21.90071 -98.73518 37011 ft 533 kts 134°
2026-04-23 07:44 21.85084 -98.67610 37018 ft 533 kts 134°
2026-04-23 07:44 21.80090 -98.61693 37010 ft 535 kts 135°
2026-04-23 07:45 21.75082 -98.55771 37013 ft 534 kts 135°
2026-04-23 07:45 21.70080 -98.49863 37020 ft 534 kts 135°
2026-04-23 07:46 21.65072 -98.43954 37007 ft 534 kts 135°
2026-04-23 07:46 21.60064 -98.38052 37017 ft 534 kts 135°
2026-04-23 07:47 21.55051 -98.32147 37006 ft 535 kts 135°
2026-04-23 07:47 21.50072 -98.26293 36983 ft 533 kts 135°
2026-04-23 07:48 21.45069 -98.20417 36971 ft 534 kts 135°
2026-04-23 07:48 21.40061 -98.14540 36981 ft 533 kts 135°
2026-04-23 07:49 21.35052 -98.08666 36971 ft 533 kts 135°
2026-04-23 07:49 21.30040 -98.02797 36967 ft 533 kts 135°
2026-04-23 07:50 21.25030 -97.96939 36973 ft 533 kts 135°
2026-04-23 07:50 21.20015 -97.91082 36959 ft 532 kts 135°
2026-04-23 07:51 21.15018 -97.85247 36956 ft 531 kts 136°
2026-04-23 07:51 21.10018 -97.79419 36961 ft 531 kts 136°
2026-04-23 07:52 21.05022 -97.73602 36946 ft 530 kts 136°
2026-04-23 07:52 21.00028 -97.67791 36943 ft 530 kts 136°
2026-04-23 07:53 20.95070 -97.62030 36942 ft 529 kts 136°